Location: Montamat
(43.4852°N, 0.8444°E)
Time: 20:52:30
(UTC+00:00)

DNEPR-1 R/B - Pass Details

Date: 14 May 2026
Orbit: 580 x 1333 km, 64.6° (Epoch: 7 June)

Event Time Altitude Azimuth Distance (km) Brightness Sun altitude
Rises 21:49:44 0° 324° (NW) 3,282 8.8 -21.6°
Reaches altitude 10° 21:51:57 10° 323° (NW) 2,447 7.8 -21.8°
Maximum altitude 21:57:40 79° 238° (WSW) 982 4.4 -22.3°
Enters shadow 21:59:56 44° 160° (SSE) 1,372 4.8 -22.5°
